Back to catalog

FENGYUN 1C DEB

AlivePO
NORAD 33730·DEBRIS·🇨🇳 China

Launched May 10, 1999 from Taiyuan Satellite Launch Center

Loading…

Next Passes (next 24 hours)

TLE

AgingSource: Space-Track

Epoch: Sep 4, 2026, 01:09 UTC

1 33730U 99025DHT 26247.04819911  .00003761  00000-0  66678-3 0  9998
2 33730  99.0352 336.3377 0035800 274.3155  85.3956 14.67558859995660

Track FENGYUN 1C DEB in real time with AllMySat

Download on the App Store